Zurück zum Katalog

STARLINK-5813

AktivKommunikationVLEO
NORAD 55790·PAYLOAD·🇺🇸 United States

Gestartet Mar 3, 2023 von Vandenberg Space Force Base

Loading…

Nächste Überflüge (nächste 24 Stunden)

TLE

AktuellSource: CelesTrak SupGP

Epoche: Sep 14, 2026, 14:28 UTC

1 55790C 23028BB  26257.60326389 -.00024357  00000+0 -20412-2 0  2570
2 55790  70.0002  88.1177 0002339 269.3332 108.3430 14.98343328    19

Verfolge STARLINK-5813 in Echtzeit mit AllMySat

Download on the App Store